Weather History for Opa Locka, FL

Change the Weather History Date:

Thursday, March 21, 2013

  Actual Average Record
Temperature  
Mean Temperature 70 °F -  
Max Temperature 78 °F 80 °F 91 °F (2003)
Min Temperature 62 °F 62 °F 44 °F (1971)
Cooling Degree Days 5    
Growing Degree Days 20 (Base 50)    
Moisture  
Dew Point 54 °F    
Average Humidity 65    
Maximum Humidity 90    
Minimum Humidity 33    
Precipitation  
Precipitation 0.00 in - - ()
Sea Level Pressure  
Sea Level Pressure 29.91 in    
Wind  
Wind Speed 8 mph (NNW)    
Max Wind Speed 14 mph    
Max Gust Speed 17 mph    
Visibility 10 miles    
Events      
Averages and records for this station are not official NWS values.
T = Trace of Precipitation, MM = Missing Value Source: NWS Daily Summary

Daily Weather History Graph

Daily Weather History Graph

Search for Another Location

Airport:

Trip Planner

Search our weather history database for the weather conditions in past years. The results will help you decide how hot, cold, wet, or windy it might be!

Date:

Astronomy

Mar. 21, 2013 Rise Set
Actual Time 7:23 AM EDT 7:32 PM EDT
Civil Twilight 7:00 AM EDT 7:55 PM EDT
Nautical Twilight 6:34 AM EDT 8:22 PM EDT
Astronomical Twilight 6:07 AM EDT 8:49 PM EDT
Moon 2:28 PM EDT 3:15 AM EDT
Length of Visible Light 12h 55m
Length of Day
12h 09m
Waxing Gibbous, 68% of the Moon is Illuminated
Mar 21
Waxing Gibbous
Mar 27
Full
Apr 3
Last Quarter
Apr 10
New
Apr 18
First Quarter

Hourly Weather History & Observations

Time (EDT) Temp. Dew Point Humidity Pressure Visibility Wind Dir Wind Speed Gust Speed Precip Events Conditions
12:53 AM 66.0 °F 60.1 °F 81% 29.88 in 10.0 mi West 10.4 mph - N/A   Scattered Clouds
1:53 AM 64.4 °F 60.8 °F 88% 29.87 in 10.0 mi West 8.1 mph - N/A   Clear
2:53 AM 64.0 °F 61.0 °F 90% 29.86 in 10.0 mi WNW 8.1 mph - N/A   Scattered Clouds
3:05 AM 64.4 °F 60.8 °F 88% 29.86 in 10.0 mi WNW 9.2 mph - N/A   Mostly Cloudy
3:43 AM 64.4 °F 60.8 °F 88% 29.86 in 10.0 mi WNW 8.1 mph - N/A   Scattered Clouds
3:53 AM 64.0 °F 61.0 °F 90% 29.86 in 10.0 mi WNW 8.1 mph - N/A   Mostly Cloudy
4:53 AM 64.0 °F 61.0 °F 90% 29.87 in 10.0 mi NW 9.2 mph - N/A   Scattered Clouds
5:53 AM 64.0 °F 61.0 °F 90% 29.87 in 10.0 mi NNW 8.1 mph - N/A   Partly Cloudy
6:53 AM 64.0 °F 60.1 °F 87% 29.89 in 10.0 mi NW 9.2 mph - N/A   Partly Cloudy
7:34 AM 62.6 °F 59.0 °F 88% 29.91 in 10.0 mi NNW 12.7 mph - N/A   Overcast
7:53 AM 64.0 °F 60.1 °F 87% 29.92 in 10.0 mi NNW 9.2 mph - N/A   Mostly Cloudy
8:53 AM 64.9 °F 57.9 °F 78% 29.94 in 10.0 mi North 11.5 mph - N/A   Scattered Clouds
9:53 AM 66.9 °F 57.0 °F 70% 29.95 in 10.0 mi North 6.9 mph - N/A   Partly Cloudy
10:53 AM 70.0 °F 53.1 °F 55% 29.95 in 10.0 mi North 13.8 mph - N/A   Clear
11:53 AM 72.0 °F 50.0 °F 46% 29.95 in 10.0 mi NW 5.8 mph - N/A   Partly Cloudy
12:53 PM 73.0 °F 46.0 °F 38% 29.94 in 10.0 mi Variable 4.6 mph - N/A   Clear
1:53 PM 75.9 °F 46.0 °F 35% 29.91 in 10.0 mi North 5.8 mph 17.3 mph N/A   Scattered Clouds
2:53 PM 77.0 °F 46.9 °F 34% 29.90 in 10.0 mi NNW 8.1 mph 16.1 mph N/A   Partly Cloudy
3:53 PM 78.1 °F 46.9 °F 33% 29.89 in 10.0 mi WNW 8.1 mph - N/A   Scattered Clouds
4:53 PM 77.0 °F 46.9 °F 34% 29.90 in 10.0 mi NW 9.2 mph - N/A   Clear
5:53 PM 75.0 °F 46.9 °F 37% 29.90 in 10.0 mi NW 10.4 mph - N/A   Partly Cloudy
6:53 PM 73.0 °F 46.0 °F 38% 29.91 in 10.0 mi NNW 6.9 mph - N/A   Clear
7:53 PM 69.1 °F 48.9 °F 49% 29.93 in 10.0 mi East 8.1 mph - N/A   Clear
8:53 PM 66.0 °F 52.0 °F 60% 29.94 in 10.0 mi East 5.8 mph - N/A   Clear
9:53 PM 64.9 °F 52.0 °F 63% 29.96 in 10.0 mi Calm Calm - N/A   Clear
10:53 PM 68.0 °F 52.0 °F 56% 29.96 in 10.0 mi East 3.5 mph - N/A   Clear
11:53 PM 64.0 °F 52.0 °F 65% 29.96 in 10.0 mi Calm Calm - N/A   Clear